owner,sensor,date,latitude,longitude,air_pressure(mBar),qcFlag 
WAVCIS,ioos:station:WAVCIS:CSI09:1,2013-07-01T00:00:00Z,29.1015,-89.9782,1007.085,11111222 
WAVCIS,ioos:station:WAVCIS:CSI09:1,2013-07-01T01:00:00Z,29.1015,-89.9782,1007.62,11111222 
WAVCIS,ioos:station:WAVCIS:CSI09:1,2013-07-01T02:00:00Z,29.1015,-89.9782,1008.17,11111222 
WAVCIS,ioos:station:WAVCIS:CSI09:1,2013-07-01T03:00:00Z,29.1015,-89.9782,1008.66,11111222 
WAVCIS,ioos:station:WAVCIS:CSI09:1,2013-07-01T04:00:00Z,29.1015,-89.9782,1008.97,11111222 
WAVCIS,ioos:station:WAVCIS:CSI09:1,2013-07-01T05:00:00Z,29.1015,-89.9782,1009.27,11111222 
WAVCIS,ioos:station:WAVCIS:CSI09:1,2013-07-01T06:00:00Z,29.1015,-89.9782,1009.5,11111222 
WAVCIS,ioos:station:WAVCIS:CSI09:1,2013-07-01T07:00:00Z,29.1015,-89.9782,1009.38,11111222 
WAVCIS,ioos:station:WAVCIS:CSI09:1,2013-07-01T08:00:00Z,29.1015,-89.9782,1009.34,11111222 
WAVCIS,ioos:station:WAVCIS:CSI09:1,2013-07-01T09:00:00Z,29.1015,-89.9782,1009.58,11111222 
WAVCIS,ioos:station:WAVCIS:CSI09:1,2013-07-01T10:00:00Z,29.1015,-89.9782,1009.71,11111222 
WAVCIS,ioos:station:WAVCIS:CSI09:1,2013-07-01T11:00:00Z,29.1015,-89.9782,1010.05,11111222 
WAVCIS,ioos:station:WAVCIS:CSI09:1,2013-07-01T12:00:00Z,29.1015,-89.9782,1010.37,11111222 
WAVCIS,ioos:station:WAVCIS:CSI09:1,2013-07-01T13:00:00Z,29.1015,-89.9782,1011.08,11111222 
WAVCIS,ioos:station:WAVCIS:CSI09:1,2013-07-01T14:00:00Z,29.1015,-89.9782,1011.54,11111222 
WAVCIS,ioos:station:WAVCIS:CSI09:1,2013-07-01T15:00:00Z,29.1015,-89.9782,1011.95,11111222 
WAVCIS,ioos:station:WAVCIS:CSI09:1,2013-07-01T16:00:00Z,29.1015,-89.9782,1012.1,11111222 
WAVCIS,ioos:station:WAVCIS:CSI09:1,2013-07-01T17:00:00Z,29.1015,-89.9782,1012.06,11111222 
WAVCIS,ioos:station:WAVCIS:CSI09:1,2013-07-01T18:00:00Z,29.1015,-89.9782,1011.76,11111222 
WAVCIS,ioos:station:WAVCIS:CSI09:1,2013-07-01T19:00:00Z,29.1015,-89.9782,1011.38,11111222 
WAVCIS,ioos:station:WAVCIS:CSI09:1,2013-07-01T20:00:00Z,29.1015,-89.9782,1011.12,11111222 
WAVCIS,ioos:station:WAVCIS:CSI09:1,2013-07-01T21:00:00Z,29.1015,-89.9782,1011.11,11111222 
WAVCIS,ioos:station:WAVCIS:CSI09:1,2013-07-01T22:00:00Z,29.1015,-89.9782,1010.97,11111222 
WAVCIS,ioos:station:WAVCIS:CSI09:1,2013-07-01T23:00:00Z,29.1015,-89.9782,1011.12,11111222 
WAVCIS,ioos:station:WAVCIS:CSI09:1,2013-07-02T00:00:00Z,29.1015,-89.9782,1011.45,11111222 
WAVCIS,ioos:station:WAVCIS:CSI09:1,2013-07-02T01:00:00Z,29.1015,-89.9782,1012.02,11111222 
WAVCIS,ioos:station:WAVCIS:CSI09:1,2013-07-02T02:00:00Z,29.1015,-89.9782,1012.29,11111222 
WAVCIS,ioos:station:WAVCIS:CSI09:1,2013-07-02T03:00:00Z,29.1015,-89.9782,1012.73,11111222 
WAVCIS,ioos:station:WAVCIS:CSI09:1,2013-07-02T04:00:00Z,29.1015,-89.9782,1013.03,11111222 
WAVCIS,ioos:station:WAVCIS:CSI09:1,2013-07-02T05:00:00Z,29.1015,-89.9782,1013.04,11111222 
WAVCIS,ioos:station:WAVCIS:CSI09:1,2013-07-02T06:00:00Z,29.1015,-89.9782,1012.8,11111222 
WAVCIS,ioos:station:WAVCIS:CSI09:1,2013-07-02T07:00:00Z,29.1015,-89.9782,1012.51,11111222 
WAVCIS,ioos:station:WAVCIS:CSI09:1,2013-07-02T08:00:00Z,29.1015,-89.9782,1012.38,11111222 
WAVCIS,ioos:station:WAVCIS:CSI09:1,2013-07-02T09:00:00Z,29.1015,-89.9782,1012.4,11111222 
WAVCIS,ioos:station:WAVCIS:CSI09:1,2013-07-02T10:00:00Z,29.1015,-89.9782,1012.92,11111222 
WAVCIS,ioos:station:WAVCIS:CSI09:1,2013-07-02T11:00:00Z,29.1015,-89.9782,1013.45,11111222 
WAVCIS,ioos:station:WAVCIS:CSI09:1,2013-07-02T12:00:00Z,29.1015,-89.9782,1013.63,11111222 
WAVCIS,ioos:station:WAVCIS:CSI09:1,2013-07-02T13:00:00Z,29.1015,-89.9782,1013.96,11111222 
WAVCIS,ioos:station:WAVCIS:CSI09:1,2013-07-02T14:00:00Z,29.1015,-89.9782,1014.51,11111222 
WAVCIS,ioos:station:WAVCIS:CSI09:1,2013-07-02T15:00:00Z,29.1015,-89.9782,1014.78,11111222 
WAVCIS,ioos:station:WAVCIS:CSI09:1,2013-07-02T16:00:00Z,29.1015,-89.9782,1015.07,11111222 
WAVCIS,ioos:station:WAVCIS:CSI09:1,2013-07-02T17:00:00Z,29.1015,-89.9782,1014.98,11111222 
WAVCIS,ioos:station:WAVCIS:CSI09:1,2013-07-02T18:00:00Z,29.1015,-89.9782,1014.92,11111222 
WAVCIS,ioos:station:WAVCIS:CSI09:1,2013-07-02T19:00:00Z,29.1015,-89.9782,1014.61,11111222 
WAVCIS,ioos:station:WAVCIS:CSI09:1,2013-07-02T20:00:00Z,29.1015,-89.9782,1014.31,11111222 
WAVCIS,ioos:station:WAVCIS:CSI09:1,2013-07-02T21:00:00Z,29.1015,-89.9782,1013.93,11111222 
WAVCIS,ioos:station:WAVCIS:CSI09:1,2013-07-02T22:00:00Z,29.1015,-89.9782,1013.83,11111222 
WAVCIS,ioos:station:WAVCIS:CSI09:1,2013-07-02T23:00:00Z,29.1015,-89.9782,1013.88,11111222 
WAVCIS,ioos:station:WAVCIS:CSI09:1,2013-07-03T00:00:00Z,29.1015,-89.9782,1013.97,11111222 
WAVCIS,ioos:station:WAVCIS:CSI09:1,2013-07-03T01:00:00Z,29.1015,-89.9782,1014.68,11111222 
WAVCIS,ioos:station:WAVCIS:CSI09:1,2013-07-03T02:00:00Z,29.1015,-89.9782,1014.98,11111222 
WAVCIS,ioos:station:WAVCIS:CSI09:1,2013-07-03T03:00:00Z,29.1015,-89.9782,1014.75,11111222 
WAVCIS,ioos:station:WAVCIS:CSI09:1,2013-07-03T04:00:00Z,29.1015,-89.9782,1015.18,11111222 
WAVCIS,ioos:station:WAVCIS:CSI09:1,2013-07-03T05:00:00Z,29.1015,-89.9782,1015.09,11111222 
WAVCIS,ioos:station:WAVCIS:CSI09:1,2013-07-03T06:00:00Z,29.1015,-89.9782,1014.84,11111222 
WAVCIS,ioos:station:WAVCIS:CSI09:1,2013-07-03T07:00:00Z,29.1015,-89.9782,1014.26,11111222 
WAVCIS,ioos:station:WAVCIS:CSI09:1,2013-07-03T08:00:00Z,29.1015,-89.9782,1013.84,11111222 
WAVCIS,ioos:station:WAVCIS:CSI09:1,2013-07-03T09:00:00Z,29.1015,-89.9782,1013.88,11111222 
WAVCIS,ioos:station:WAVCIS:CSI09:1,2013-07-03T10:00:00Z,29.1015,-89.9782,1014.11,11111222 
WAVCIS,ioos:station:WAVCIS:CSI09:1,2013-07-03T11:00:00Z,29.1015,-89.9782,1014.13,11111222 
WAVCIS,ioos:station:WAVCIS:CSI09:1,2013-07-03T12:00:00Z,29.1015,-89.9782,1014.13,11111222 
WAVCIS,ioos:station:WAVCIS:CSI09:1,2013-07-03T13:00:00Z,29.1015,-89.9782,1015.17,11111222 
WAVCIS,ioos:station:WAVCIS:CSI09:1,2013-07-03T14:00:00Z,29.1015,-89.9782,1015.77,11111222 
WAVCIS,ioos:station:WAVCIS:CSI09:1,2013-07-03T15:00:00Z,29.1015,-89.9782,1015.81,11111222 
WAVCIS,ioos:station:WAVCIS:CSI09:1,2013-07-03T16:00:00Z,29.1015,-89.9782,1015.83,11111222 
WAVCIS,ioos:station:WAVCIS:CSI09:1,2013-07-03T17:00:00Z,29.1015,-89.9782,1015.62,11111222 
WAVCIS,ioos:station:WAVCIS:CSI09:1,2013-07-03T18:00:00Z,29.1015,-89.9782,1015.51,11111222 
WAVCIS,ioos:station:WAVCIS:CSI09:1,2013-07-03T19:00:00Z,29.1015,-89.9782,1014.69,11111222 
WAVCIS,ioos:station:WAVCIS:CSI09:1,2013-07-03T20:00:00Z,29.1015,-89.9782,1014.6,11111222 
WAVCIS,ioos:station:WAVCIS:CSI09:1,2013-07-03T21:00:00Z,29.1015,-89.9782,1013.96,11111222 
WAVCIS,ioos:station:WAVCIS:CSI09:1,2013-07-03T22:00:00Z,29.1015,-89.9782,1013.38,11111222 
WAVCIS,ioos:station:WAVCIS:CSI09:1,2013-07-03T23:00:00Z,29.1015,-89.9782,1013.09,11111222 
WAVCIS,ioos:station:WAVCIS:CSI09:1,2013-07-04T00:00:00Z,29.1015,-89.9782,1013.17,11111222 
WAVCIS,ioos:station:WAVCIS:CSI09:1,2013-07-04T01:00:00Z,29.1015,-89.9782,1013.56,11111222 
WAVCIS,ioos:station:WAVCIS:CSI09:1,2013-07-04T02:00:00Z,29.1015,-89.9782,1013.77,11111222 
WAVCIS,ioos:station:WAVCIS:CSI09:1,2013-07-04T03:00:00Z,29.1015,-89.9782,1014.11,11111222 
WAVCIS,ioos:station:WAVCIS:CSI09:1,2013-07-04T04:00:00Z,29.1015,-89.9782,1014.22,11111222 
WAVCIS,ioos:station:WAVCIS:CSI09:1,2013-07-04T05:00:00Z,29.1015,-89.9782,1013.94,11111222 
WAVCIS,ioos:station:WAVCIS:CSI09:1,2013-07-04T06:00:00Z,29.1015,-89.9782,1013.79,11111222 
WAVCIS,ioos:station:WAVCIS:CSI09:1,2013-07-04T07:00:00Z,29.1015,-89.9782,1013.11,11111222 
WAVCIS,ioos:station:WAVCIS:CSI09:1,2013-07-04T08:00:00Z,29.1015,-89.9782,1013.28,11111222 
WAVCIS,ioos:station:WAVCIS:CSI09:1,2013-07-04T09:00:00Z,29.1015,-89.9782,1012.95,11111222 
WAVCIS,ioos:station:WAVCIS:CSI09:1,2013-07-04T10:00:00Z,29.1015,-89.9782,1013.19,11111222 
WAVCIS,ioos:station:WAVCIS:CSI09:1,2013-07-04T11:00:00Z,29.1015,-89.9782,1013.13,11111222 
WAVCIS,ioos:station:WAVCIS:CSI09:1,2013-07-04T12:00:00Z,29.1015,-89.9782,1013.42,11111222 
WAVCIS,ioos:station:WAVCIS:CSI09:1,2013-07-04T13:00:00Z,29.1015,-89.9782,1013.76,11111222 
WAVCIS,ioos:station:WAVCIS:CSI09:1,2013-07-04T14:00:00Z,29.1015,-89.9782,1014.11,11111222 
WAVCIS,ioos:station:WAVCIS:CSI09:1,2013-07-04T15:00:00Z,29.1015,-89.9782,1014.36,11111222 
WAVCIS,ioos:station:WAVCIS:CSI09:1,2013-07-04T16:00:00Z,29.1015,-89.9782,1014.55,11111222 
WAVCIS,ioos:station:WAVCIS:CSI09:1,2013-07-04T17:00:00Z,29.1015,-89.9782,1015.03,11111222 
WAVCIS,ioos:station:WAVCIS:CSI09:1,2013-07-04T18:00:00Z,29.1015,-89.9782,1014.54,11111222 
WAVCIS,ioos:station:WAVCIS:CSI09:1,2013-07-04T19:00:00Z,29.1015,-89.9782,1014.07,11111222 
WAVCIS,ioos:station:WAVCIS:CSI09:1,2013-07-04T20:00:00Z,29.1015,-89.9782,1013.85,11111222 
WAVCIS,ioos:station:WAVCIS:CSI09:1,2013-07-04T21:00:00Z,29.1015,-89.9782,1013.64,11111222 
WAVCIS,ioos:station:WAVCIS:CSI09:1,2013-07-04T22:00:00Z,29.1015,-89.9782,1013.65,11111222 
WAVCIS,ioos:station:WAVCIS:CSI09:1,2013-07-04T23:00:00Z,29.1015,-89.9782,1013.49,11111222 
WAVCIS,ioos:station:WAVCIS:CSI09:1,2013-07-05T00:00:00Z,29.1015,-89.9782,1013.65,11111222 
WAVCIS,ioos:station:WAVCIS:CSI09:1,2013-07-05T01:00:00Z,29.1015,-89.9782,1014.15,11111222 
WAVCIS,ioos:station:WAVCIS:CSI09:1,2013-07-05T02:00:00Z,29.1015,-89.9782,1014.59,11111222 
WAVCIS,ioos:station:WAVCIS:CSI09:1,2013-07-05T03:00:00Z,29.1015,-89.9782,1014.56,11111222 
WAVCIS,ioos:station:WAVCIS:CSI09:1,2013-07-05T04:00:00Z,29.1015,-89.9782,1014.76,11111222 
WAVCIS,ioos:station:WAVCIS:CSI09:1,2013-07-05T05:00:00Z,29.1015,-89.9782,1014.76,11111222 
WAVCIS,ioos:station:WAVCIS:CSI09:1,2013-07-05T06:00:00Z,29.1015,-89.9782,1014.57,11111222 
WAVCIS,ioos:station:WAVCIS:CSI09:1,2013-07-05T07:00:00Z,29.1015,-89.9782,1014.16,11111222 
WAVCIS,ioos:station:WAVCIS:CSI09:1,2013-07-05T08:00:00Z,29.1015,-89.9782,1014.15,11111222 
WAVCIS,ioos:station:WAVCIS:CSI09:1,2013-07-05T09:00:00Z,29.1015,-89.9782,1014.5,11111222 
WAVCIS,ioos:station:WAVCIS:CSI09:1,2013-07-05T10:00:00Z,29.1015,-89.9782,1014.6,11111222 
WAVCIS,ioos:station:WAVCIS:CSI09:1,2013-07-05T11:00:00Z,29.1015,-89.9782,1014.34,11111222 
WAVCIS,ioos:station:WAVCIS:CSI09:1,2013-07-05T12:00:00Z,29.1015,-89.9782,1014.71,11111222 
WAVCIS,ioos:station:WAVCIS:CSI09:1,2013-07-05T13:00:00Z,29.1015,-89.9782,1015.49,11111222 
WAVCIS,ioos:station:WAVCIS:CSI09:1,2013-07-05T14:00:00Z,29.1015,-89.9782,1015.13,11111222 
WAVCIS,ioos:station:WAVCIS:CSI09:1,2013-07-05T15:00:00Z,29.1015,-89.9782,1016.57,11111222 
WAVCIS,ioos:station:WAVCIS:CSI09:1,2013-07-05T16:00:00Z,29.1015,-89.9782,1017.04,11111222 
WAVCIS,ioos:station:WAVCIS:CSI09:1,2013-07-05T17:00:00Z,29.1015,-89.9782,1017.22,11111222 
WAVCIS,ioos:station:WAVCIS:CSI09:1,2013-07-05T18:00:00Z,29.1015,-89.9782,1017.3,11111222 
WAVCIS,ioos:station:WAVCIS:CSI09:1,2013-07-05T19:00:00Z,29.1015,-89.9782,1016.47,11111222 
WAVCIS,ioos:station:WAVCIS:CSI09:1,2013-07-05T20:00:00Z,29.1015,-89.9782,1015.06,11111222 
WAVCIS,ioos:station:WAVCIS:CSI09:1,2013-07-05T21:00:00Z,29.1015,-89.9782,1014.91,11111222 
WAVCIS,ioos:station:WAVCIS:CSI09:1,2013-07-05T22:00:00Z,29.1015,-89.9782,1012.54,11111222 
WAVCIS,ioos:station:WAVCIS:CSI09:1,2013-07-05T23:00:00Z,29.1015,-89.9782,1013.57,11111222 
WAVCIS,ioos:station:WAVCIS:CSI09:1,2013-07-06T00:00:00Z,29.1015,-89.9782,1014.49,11111222 
WAVCIS,ioos:station:WAVCIS:CSI09:1,2013-07-06T01:00:00Z,29.1015,-89.9782,1013.18,11111222 
WAVCIS,ioos:station:WAVCIS:CSI09:1,2013-07-06T02:00:00Z,29.1015,-89.9782,1014.35,11111222 
WAVCIS,ioos:station:WAVCIS:CSI09:1,2013-07-06T03:00:00Z,29.1015,-89.9782,1014.44,11111222 
WAVCIS,ioos:station:WAVCIS:CSI09:1,2013-07-06T04:00:00Z,29.1015,-89.9782,1015.03,11111222 
WAVCIS,ioos:station:WAVCIS:CSI09:1,2013-07-06T05:00:00Z,29.1015,-89.9782,1014.88,11111222 
WAVCIS,ioos:station:WAVCIS:CSI09:1,2013-07-06T06:00:00Z,29.1015,-89.9782,1014.64,11111222 
WAVCIS,ioos:station:WAVCIS:CSI09:1,2013-07-06T07:00:00Z,29.1015,-89.9782,1014.48,11111222 
WAVCIS,ioos:station:WAVCIS:CSI09:1,2013-07-06T08:00:00Z,29.1015,-89.9782,1014.09,11111222 
WAVCIS,ioos:station:WAVCIS:CSI09:1,2013-07-06T09:00:00Z,29.1015,-89.9782,1014.22,11111222 
WAVCIS,ioos:station:WAVCIS:CSI09:1,2013-07-06T10:00:00Z,29.1015,-89.9782,1014.08,11111222 
WAVCIS,ioos:station:WAVCIS:CSI09:1,2013-07-06T11:00:00Z,29.1015,-89.9782,1014.32,11111222 
WAVCIS,ioos:station:WAVCIS:CSI09:1,2013-07-06T12:00:00Z,29.1015,-89.9782,1014.78,11111222 
WAVCIS,ioos:station:WAVCIS:CSI09:1,2013-07-06T13:00:00Z,29.1015,-89.9782,1015.08,11111222 
WAVCIS,ioos:station:WAVCIS:CSI09:1,2013-07-06T14:00:00Z,29.1015,-89.9782,1015.73,11111222 
WAVCIS,ioos:station:WAVCIS:CSI09:1,2013-07-06T15:00:00Z,29.1015,-89.9782,1015.77,11111222 
WAVCIS,ioos:station:WAVCIS:CSI09:1,2013-07-06T16:00:00Z,29.1015,-89.9782,1015.88,11111222 
WAVCIS,ioos:station:WAVCIS:CSI09:1,2013-07-06T17:00:00Z,29.1015,-89.9782,1015.79,11111222 
WAVCIS,ioos:station:WAVCIS:CSI09:1,2013-07-06T18:00:00Z,29.1015,-89.9782,1015.76,11111222 
WAVCIS,ioos:station:WAVCIS:CSI09:1,2013-07-06T19:00:00Z,29.1015,-89.9782,1015.58,11111222 
WAVCIS,ioos:station:WAVCIS:CSI09:1,2013-07-06T20:00:00Z,29.1015,-89.9782,1014.98,11111222 
WAVCIS,ioos:station:WAVCIS:CSI09:1,2013-07-06T21:00:00Z,29.1015,-89.9782,1015.21,11111222 
WAVCIS,ioos:station:WAVCIS:CSI09:1,2013-07-06T22:00:00Z,29.1015,-89.9782,1014.9,11111222 
WAVCIS,ioos:station:WAVCIS:CSI09:1,2013-07-06T23:00:00Z,29.1015,-89.9782,1015.07,11111222 
WAVCIS,ioos:station:WAVCIS:CSI09:1,2013-07-07T00:00:00Z,29.1015,-89.9782,1015.17,11111222 
WAVCIS,ioos:station:WAVCIS:CSI09:1,2013-07-07T01:00:00Z,29.1015,-89.9782,1015.17,11111222 
WAVCIS,ioos:station:WAVCIS:CSI09:1,2013-07-07T02:00:00Z,29.1015,-89.9782,1015.51,11111222 
WAVCIS,ioos:station:WAVCIS:CSI09:1,2013-07-07T03:00:00Z,29.1015,-89.9782,1016.03,11111222 
WAVCIS,ioos:station:WAVCIS:CSI09:1,2013-07-07T04:00:00Z,29.1015,-89.9782,1016.23,11111222 
WAVCIS,ioos:station:WAVCIS:CSI09:1,2013-07-07T05:00:00Z,29.1015,-89.9782,1016.55,11111222 
WAVCIS,ioos:station:WAVCIS:CSI09:1,2013-07-07T06:00:00Z,29.1015,-89.9782,1015.76,11111222 
WAVCIS,ioos:station:WAVCIS:CSI09:1,2013-07-07T07:00:00Z,29.1015,-89.9782,1015.43,11111222 
WAVCIS,ioos:station:WAVCIS:CSI09:1,2013-07-07T08:00:00Z,29.1015,-89.9782,1015.52,11111222 
WAVCIS,ioos:station:WAVCIS:CSI09:1,2013-07-07T09:00:00Z,29.1015,-89.9782,1015.97,11111222 
WAVCIS,ioos:station:WAVCIS:CSI09:1,2013-07-07T10:00:00Z,29.1015,-89.9782,1015.92,11111222 
WAVCIS,ioos:station:WAVCIS:CSI09:1,2013-07-07T11:00:00Z,29.1015,-89.9782,1016.03,11111222 
WAVCIS,ioos:station:WAVCIS:CSI09:1,2013-07-07T12:00:00Z,29.1015,-89.9782,1016.39,11111222 
WAVCIS,ioos:station:WAVCIS:CSI09:1,2013-07-07T13:00:00Z,29.1015,-89.9782,1017.19,11111222 
WAVCIS,ioos:station:WAVCIS:CSI09:1,2013-07-07T14:00:00Z,29.1015,-89.9782,1017.45,11111222 
WAVCIS,ioos:station:WAVCIS:CSI09:1,2013-07-07T15:00:00Z,29.1015,-89.9782,1017.8,11111222 
WAVCIS,ioos:station:WAVCIS:CSI09:1,2013-07-07T16:00:00Z,29.1015,-89.9782,1018.23,11111222 
WAVCIS,ioos:station:WAVCIS:CSI09:1,2013-07-07T17:00:00Z,29.1015,-89.9782,1018.59,11111222 
WAVCIS,ioos:station:WAVCIS:CSI09:1,2013-07-07T18:00:00Z,29.1015,-89.9782,1018.55,11111222 
WAVCIS,ioos:station:WAVCIS:CSI09:1,2013-07-07T19:00:00Z,29.1015,-89.9782,1018.06,11111222 
WAVCIS,ioos:station:WAVCIS:CSI09:1,2013-07-07T20:00:00Z,29.1015,-89.9782,1017.77,11111222 
WAVCIS,ioos:station:WAVCIS:CSI09:1,2013-07-07T21:00:00Z,29.1015,-89.9782,1017.84,11111222 
WAVCIS,ioos:station:WAVCIS:CSI09:1,2013-07-07T22:00:00Z,29.1015,-89.9782,1017.36,11111222 
WAVCIS,ioos:station:WAVCIS:CSI09:1,2013-07-07T23:00:00Z,29.1015,-89.9782,1017.62,11111222 
WAVCIS,ioos:station:WAVCIS:CSI09:1,2013-07-08T00:00:00Z,29.1015,-89.9782,1017.94,11111222 
WAVCIS,ioos:station:WAVCIS:CSI09:1,2013-07-08T01:00:00Z,29.1015,-89.9782,1018.81,11111222 
WAVCIS,ioos:station:WAVCIS:CSI09:1,2013-07-08T02:00:00Z,29.1015,-89.9782,1018.97,11111222 
WAVCIS,ioos:station:WAVCIS:CSI09:1,2013-07-08T03:00:00Z,29.1015,-89.9782,1019.18,11111222 
WAVCIS,ioos:station:WAVCIS:CSI09:1,2013-07-08T04:00:00Z,29.1015,-89.9782,1019.11,11111222 
WAVCIS,ioos:station:WAVCIS:CSI09:1,2013-07-08T05:00:00Z,29.1015,-89.9782,1018.96,11111222 
WAVCIS,ioos:station:WAVCIS:CSI09:1,2013-07-08T06:00:00Z,29.1015,-89.9782,1018.39,11111222 
WAVCIS,ioos:station:WAVCIS:CSI09:1,2013-07-08T07:00:00Z,29.1015,-89.9782,1017.81,11111222 
WAVCIS,ioos:station:WAVCIS:CSI09:1,2013-07-08T08:00:00Z,29.1015,-89.9782,1017.85,11111222 
WAVCIS,ioos:station:WAVCIS:CSI09:1,2013-07-08T09:00:00Z,29.1015,-89.9782,1018.26,11111222 
WAVCIS,ioos:station:WAVCIS:CSI09:1,2013-07-08T10:00:00Z,29.1015,-89.9782,1018.68,11111222 
WAVCIS,ioos:station:WAVCIS:CSI09:1,2013-07-08T11:00:00Z,29.1015,-89.9782,1018.97,11111222 
WAVCIS,ioos:station:WAVCIS:CSI09:1,2013-07-08T12:00:00Z,29.1015,-89.9782,1019.65,11111222 
WAVCIS,ioos:station:WAVCIS:CSI09:1,2013-07-08T13:00:00Z,29.1015,-89.9782,1020.27,11111222 
WAVCIS,ioos:station:WAVCIS:CSI09:1,2013-07-08T14:00:00Z,29.1015,-89.9782,1020.98,11111222 
WAVCIS,ioos:station:WAVCIS:CSI09:1,2013-07-08T15:00:00Z,29.1015,-89.9782,1021.31,11111222 
WAVCIS,ioos:station:WAVCIS:CSI09:1,2013-07-08T16:00:00Z,29.1015,-89.9782,1021.4,11111222 
WAVCIS,ioos:station:WAVCIS:CSI09:1,2013-07-08T17:00:00Z,29.1015,-89.9782,1021.56,11111222 
WAVCIS,ioos:station:WAVCIS:CSI09:1,2013-07-08T18:00:00Z,29.1015,-89.9782,1021.21,11111222 
WAVCIS,ioos:station:WAVCIS:CSI09:1,2013-07-08T19:00:00Z,29.1015,-89.9782,1020.96,11111222 
WAVCIS,ioos:station:WAVCIS:CSI09:1,2013-07-08T20:00:00Z,29.1015,-89.9782,1020.54,11111222 
WAVCIS,ioos:station:WAVCIS:CSI09:1,2013-07-08T21:00:00Z,29.1015,-89.9782,1020.08,11111222 
WAVCIS,ioos:station:WAVCIS:CSI09:1,2013-07-08T22:00:00Z,29.1015,-89.9782,1020.1,11111222 
WAVCIS,ioos:station:WAVCIS:CSI09:1,2013-07-08T23:00:00Z,29.1015,-89.9782,1019.82,11111222 
WAVCIS,ioos:station:WAVCIS:CSI09:1,2013-07-09T00:00:00Z,29.1015,-89.9782,1020.0,11111222 
WAVCIS,ioos:station:WAVCIS:CSI09:1,2013-07-09T01:00:00Z,29.1015,-89.9782,1020.21,11111222 
WAVCIS,ioos:station:WAVCIS:CSI09:1,2013-07-09T02:00:00Z,29.1015,-89.9782,1020.44,11111222 
WAVCIS,ioos:station:WAVCIS:CSI09:1,2013-07-09T03:00:00Z,29.1015,-89.9782,1020.85,11111222 
WAVCIS,ioos:station:WAVCIS:CSI09:1,2013-07-09T04:00:00Z,29.1015,-89.9782,1021.14,11111222 
WAVCIS,ioos:station:WAVCIS:CSI09:1,2013-07-09T05:00:00Z,29.1015,-89.9782,1020.96,11111222 
WAVCIS,ioos:station:WAVCIS:CSI09:1,2013-07-09T06:00:00Z,29.1015,-89.9782,1020.56,11111222 
WAVCIS,ioos:station:WAVCIS:CSI09:1,2013-07-09T07:00:00Z,29.1015,-89.9782,1020.36,11111222 
WAVCIS,ioos:station:WAVCIS:CSI09:1,2013-07-09T08:00:00Z,29.1015,-89.9782,1019.96,11111222 
WAVCIS,ioos:station:WAVCIS:CSI09:1,2013-07-09T09:00:00Z,29.1015,-89.9782,1020.07,11111222 
WAVCIS,ioos:station:WAVCIS:CSI09:1,2013-07-09T10:00:00Z,29.1015,-89.9782,1020.26,11111222 
WAVCIS,ioos:station:WAVCIS:CSI09:1,2013-07-09T11:00:00Z,29.1015,-89.9782,1020.66,11111222 
WAVCIS,ioos:station:WAVCIS:CSI09:1,2013-07-09T12:00:00Z,29.1015,-89.9782,1021.15,11111222 
WAVCIS,ioos:station:WAVCIS:CSI09:1,2013-07-09T13:00:00Z,29.1015,-89.9782,1021.68,11111222 
WAVCIS,ioos:station:WAVCIS:CSI09:1,2013-07-09T14:00:00Z,29.1015,-89.9782,1022.01,11111222 
WAVCIS,ioos:station:WAVCIS:CSI09:1,2013-07-09T15:00:00Z,29.1015,-89.9782,1022.19,11111222 
WAVCIS,ioos:station:WAVCIS:CSI09:1,2013-07-09T16:00:00Z,29.1015,-89.9782,1022.59,11111222 
WAVCIS,ioos:station:WAVCIS:CSI09:1,2013-07-09T17:00:00Z,29.1015,-89.9782,1022.32,11111222 
WAVCIS,ioos:station:WAVCIS:CSI09:1,2013-07-09T18:00:00Z,29.1015,-89.9782,1021.99,11111222 
WAVCIS,ioos:station:WAVCIS:CSI09:1,2013-07-09T19:00:00Z,29.1015,-89.9782,1021.57,11111222 
WAVCIS,ioos:station:WAVCIS:CSI09:1,2013-07-09T20:00:00Z,29.1015,-89.9782,1021.1,11111222 
WAVCIS,ioos:station:WAVCIS:CSI09:1,2013-07-09T21:00:00Z,29.1015,-89.9782,1020.64,11111222 
WAVCIS,ioos:station:WAVCIS:CSI09:1,2013-07-09T22:00:00Z,29.1015,-89.9782,1020.07,11111222 
WAVCIS,ioos:station:WAVCIS:CSI09:1,2013-07-09T23:00:00Z,29.1015,-89.9782,1019.33,11111222 
WAVCIS,ioos:station:WAVCIS:CSI09:1,2013-07-10T00:00:00Z,29.1015,-89.9782,1019.42,11111222 
WAVCIS,ioos:station:WAVCIS:CSI09:1,2013-07-10T01:00:00Z,29.1015,-89.9782,1019.63,11111222 
WAVCIS,ioos:station:WAVCIS:CSI09:1,2013-07-10T02:00:00Z,29.1015,-89.9782,1019.34,11111222 
WAVCIS,ioos:station:WAVCIS:CSI09:1,2013-07-10T03:00:00Z,29.1015,-89.9782,1019.78,11111222 
WAVCIS,ioos:station:WAVCIS:CSI09:1,2013-07-10T04:00:00Z,29.1015,-89.9782,1020.01,11111222 
WAVCIS,ioos:station:WAVCIS:CSI09:1,2013-07-10T05:00:00Z,29.1015,-89.9782,1020.2,11111222 
WAVCIS,ioos:station:WAVCIS:CSI09:1,2013-07-10T06:00:00Z,29.1015,-89.9782,1019.59,11111222 
WAVCIS,ioos:station:WAVCIS:CSI09:1,2013-07-10T07:00:00Z,29.1015,-89.9782,1018.88,11111222 
WAVCIS,ioos:station:WAVCIS:CSI09:1,2013-07-10T08:00:00Z,29.1015,-89.9782,1018.91,11111222 
WAVCIS,ioos:station:WAVCIS:CSI09:1,2013-07-10T09:00:00Z,29.1015,-89.9782,1019.09,11111222 
WAVCIS,ioos:station:WAVCIS:CSI09:1,2013-07-10T10:00:00Z,29.1015,-89.9782,1019.04,11111222 
WAVCIS,ioos:station:WAVCIS:CSI09:1,2013-07-10T11:00:00Z,29.1015,-89.9782,1019.32,11111222 
WAVCIS,ioos:station:WAVCIS:CSI09:1,2013-07-10T12:00:00Z,29.1015,-89.9782,1019.52,11111222 
WAVCIS,ioos:station:WAVCIS:CSI09:1,2013-07-10T13:00:00Z,29.1015,-89.9782,1020.03,11111222 
WAVCIS,ioos:station:WAVCIS:CSI09:1,2013-07-10T14:00:00Z,29.1015,-89.9782,1020.02,11111222 
WAVCIS,ioos:station:WAVCIS:CSI09:1,2013-07-10T15:00:00Z,29.1015,-89.9782,1020.01,11111222 
WAVCIS,ioos:station:WAVCIS:CSI09:1,2013-07-10T16:00:00Z,29.1015,-89.9782,1020.35,11111222 
WAVCIS,ioos:station:WAVCIS:CSI09:1,2013-07-10T17:00:00Z,29.1015,-89.9782,1020.14,11111222 
WAVCIS,ioos:station:WAVCIS:CSI09:1,2013-07-10T18:00:00Z,29.1015,-89.9782,1019.6,11111222 
WAVCIS,ioos:station:WAVCIS:CSI09:1,2013-07-10T19:00:00Z,29.1015,-89.9782,1018.63,11111222 
WAVCIS,ioos:station:WAVCIS:CSI09:1,2013-07-10T20:00:00Z,29.1015,-89.9782,1017.68,11111222 
WAVCIS,ioos:station:WAVCIS:CSI09:1,2013-07-10T21:00:00Z,29.1015,-89.9782,1017.37,11111222 
WAVCIS,ioos:station:WAVCIS:CSI09:1,2013-07-10T22:00:00Z,29.1015,-89.9782,1016.94,11111222 
WAVCIS,ioos:station:WAVCIS:CSI09:1,2013-07-10T23:00:00Z,29.1015,-89.9782,1016.69,11111222 
WAVCIS,ioos:station:WAVCIS:CSI09:1,2013-07-11T00:00:00Z,29.1015,-89.9782,1016.77,11111222 
WAVCIS,ioos:station:WAVCIS:CSI09:1,2013-07-11T01:00:00Z,29.1015,-89.9782,1016.37,11111222 
WAVCIS,ioos:station:WAVCIS:CSI09:1,2013-07-11T02:00:00Z,29.1015,-89.9782,1016.27,11111222 
WAVCIS,ioos:station:WAVCIS:CSI09:1,2013-07-11T03:00:00Z,29.1015,-89.9782,1016.3,11111222 
WAVCIS,ioos:station:WAVCIS:CSI09:1,2013-07-11T04:00:00Z,29.1015,-89.9782,1016.75,11111222 
WAVCIS,ioos:station:WAVCIS:CSI09:1,2013-07-11T05:00:00Z,29.1015,-89.9782,1016.41,11111222 
WAVCIS,ioos:station:WAVCIS:CSI09:1,2013-07-11T06:00:00Z,29.1015,-89.9782,1016.22,11111222 
WAVCIS,ioos:station:WAVCIS:CSI09:1,2013-07-11T07:00:00Z,29.1015,-89.9782,1016.04,11111222 
WAVCIS,ioos:station:WAVCIS:CSI09:1,2013-07-11T08:00:00Z,29.1015,-89.9782,1016.19,11111222 
WAVCIS,ioos:station:WAVCIS:CSI09:1,2013-07-11T09:00:00Z,29.1015,-89.9782,1016.16,11111222 
WAVCIS,ioos:station:WAVCIS:CSI09:1,2013-07-11T10:00:00Z,29.1015,-89.9782,1015.45,11111222 
WAVCIS,ioos:station:WAVCIS:CSI09:1,2013-07-11T11:00:00Z,29.1015,-89.9782,1015.32,11111222 
WAVCIS,ioos:station:WAVCIS:CSI09:1,2013-07-11T12:00:00Z,29.1015,-89.9782,1016.05,11111222 
WAVCIS,ioos:station:WAVCIS:CSI09:1,2013-07-11T13:00:00Z,29.1015,-89.9782,1016.2,11111222 
WAVCIS,ioos:station:WAVCIS:CSI09:1,2013-07-11T14:00:00Z,29.1015,-89.9782,1016.47,11111222 
WAVCIS,ioos:station:WAVCIS:CSI09:1,2013-07-11T15:00:00Z,29.1015,-89.9782,1016.4,11111222 
WAVCIS,ioos:station:WAVCIS:CSI09:1,2013-07-11T16:00:00Z,29.1015,-89.9782,1016.46,11111222 
WAVCIS,ioos:station:WAVCIS:CSI09:1,2013-07-11T17:00:00Z,29.1015,-89.9782,1016.26,11111222 
WAVCIS,ioos:station:WAVCIS:CSI09:1,2013-07-11T18:00:00Z,29.1015,-89.9782,1015.74,11111222 
WAVCIS,ioos:station:WAVCIS:CSI09:1,2013-07-11T19:00:00Z,29.1015,-89.9782,1015.23,11111222 
WAVCIS,ioos:station:WAVCIS:CSI09:1,2013-07-11T20:00:00Z,29.1015,-89.9782,1014.96,11111222 
WAVCIS,ioos:station:WAVCIS:CSI09:1,2013-07-11T21:00:00Z,29.1015,-89.9782,1014.45,11111222 
WAVCIS,ioos:station:WAVCIS:CSI09:1,2013-07-11T22:00:00Z,29.1015,-89.9782,1014.21,11111222 